星链-31584 (STARLINK-31584 )

导读

STARLINK-31584是美国SpaceX公司于2024年5月24日发射的星链卫星,星链项目旨在打造全球低轨卫星互联网星座,为偏远、基础设施匮乏地区提供高速低延迟宽带网络服务。该卫星属于Starlink星座的最新批次,将进一步扩展星链全球覆盖范围,提升网络服务容量与稳定性,目前星链已在全球六十多个国家提供服务,推动全球互联网接入的普及与便捷性。

基本信息
目录编号:
59862
目录名称:
STARLINK-31584
国际标识:
2024-098E
轨道中心:
EARTH
卫星名称:
星链-31584
卫星全名:
星链-31584 (STARLINK-31584 )
卫星状态:
在轨 (已飞行841 天)
发射日期:
2024-05-24 UTC
国别 :
美国 (US)
星等 :
--
该卫星已列入 空间交会检测服务 Space Conjunction Data Service (SCDS) ,当前飞行风险评估等级: 无高风险
轨道信息
数据来源 国际轨道数据 AOE轨道数据
星历时间 2026-09-11T21:20:17+0800
11小时前
查看轨道信息
2026-09-07T06:00:00+0800
5天前
查看轨道信息
半长轴 6861.179km 6861.185km
偏心率 0.0001168 0.0001342
轨道倾角 43.000° 43.002°
近地点辐角 207.995° 268.229°
升交点赤经 308.181° 334.388°
平近点角 152.084° 110.304°
近地点 482.24km 482.127km
远地点 483.844km 483.969km
周期 94.267分钟 94.267分钟
每日圈数 15.275826 15.275804
详细信息
固有亮度:
5
最大亮度:
1.5
卫星平台:
Starlink v2.0 mini
覆盖范围:
全球
运营商:
太空探索技术公司
运营商所在国:
美国
制造商(研发单位):
太空探索技术公司
制造商所在国:
美国
使用方式:
暂无
卫星简介
星链(Starlink)计划是由太空探索技术公司(SpaceX)提出的一个巨型低轨卫星互联网星座项目,计划在2019年至2024年间在太空搭建由约1.2万颗卫星组成的“星链”网络,其中1584颗将部署在地球上空550千米处的近地轨道,并从2020年开始工作。该卫星仍在工作。
2D轨道图
3D轨道图
轨道高度分析图
轨道倾角分析图
轨道综合分析图
查看轨道综合分析图
与全量物体交会距离演化趋势
与全量物体交会风险概率演化趋势